TimeEST,TemperatureF,Dew PointF,Humidity,Sea Level PressureIn,VisibilityMPH,Wind Direction,Wind SpeedMPH,Gust SpeedMPH,PrecipitationIn,Events,Conditions,WindDirDegrees,DateUTC
12:15 AM,15.8,15.8,100,29.86,10.0,Calm,Calm,-,N/A,,Unknown,0,2013-02-17 05:15:00
12:35 AM,15.8,15.8,100,29.86,10.0,Calm,Calm,-,N/A,,Unknown,0,2013-02-17 05:35:00
12:55 AM,14.0,14.0,100,29.86,10.0,Calm,Calm,-,N/A,,Unknown,0,2013-02-17 05:55:00
1:15 AM,15.8,15.8,100,29.85,10.0,Calm,Calm,-,N/A,,Unknown,0,2013-02-17 06:15:00
1:35 AM,15.8,15.8,100,29.85,10.0,Calm,Calm,-,N/A,,Unknown,0,2013-02-17 06:35:00
1:55 AM,17.6,17.6,100,29.85,10.0,Calm,Calm,-,N/A,,Unknown,0,2013-02-17 06:55:00
2:15 AM,17.6,17.6,100,29.86,10.0,Calm,Calm,-,N/A,,Unknown,0,2013-02-17 07:15:00
2:35 AM,17.6,15.8,93,29.86,10.0,West,3.5,-,N/A,,Unknown,280,2013-02-17 07:35:00
2:55 AM,17.6,15.8,93,29.86,10.0,West,4.6,-,N/A,,Unknown,280,2013-02-17 07:55:00
3:15 AM,17.6,15.8,93,29.86,10.0,Calm,Calm,-,N/A,,Unknown,0,2013-02-17 08:15:00
3:35 AM,17.6,15.8,93,29.86,10.0,Calm,Calm,-,N/A,,Unknown,0,2013-02-17 08:35:00
3:55 AM,17.6,15.8,93,29.86,7.0,NW,4.6,-,N/A,,Unknown,310,2013-02-17 08:55:00
4:15 AM,17.6,15.8,93,29.87,4.0,NW,6.9,-,N/A,,Unknown,320,2013-02-17 09:15:00
4:35 AM,17.6,15.8,93,29.87,3.0,NW,4.6,-,N/A,,Unknown,310,2013-02-17 09:35:00
4:55 AM,17.6,15.8,93,29.88,4.0,WNW,4.6,-,N/A,,Unknown,300,2013-02-17 09:55:00
5:15 AM,17.6,17.6,100,29.88,2.0,WNW,3.5,-,N/A,,Unknown,300,2013-02-17 10:15:00
5:35 AM,17.6,17.6,100,29.89,5.0,NW,4.6,-,N/A,,Unknown,310,2013-02-17 10:35:00
5:55 AM,17.6,17.6,100,29.89,2.5,NW,4.6,-,N/A,,Unknown,310,2013-02-17 10:55:00
6:15 AM,17.6,17.6,100,29.89,2.5,NW,4.6,-,N/A,,Unknown,310,2013-02-17 11:15:00
6:35 AM,17.6,17.6,100,29.89,1.8,WNW,5.8,-,N/A,,Unknown,300,2013-02-17 11:35:00
6:55 AM,17.6,17.6,100,29.89,2.0,WNW,5.8,-,N/A,,Unknown,300,2013-02-17 11:55:00
7:15 AM,17.6,17.6,100,29.90,1.5,WNW,4.6,-,N/A,,Unknown,300,2013-02-17 12:15:00
7:35 AM,17.6,17.6,100,29.90,1.5,NW,5.8,-,N/A,,Unknown,310,2013-02-17 12:35:00
7:55 AM,17.6,17.6,100,29.90,1.5,NW,4.6,-,N/A,,Unknown,310,2013-02-17 12:55:00
8:15 AM,17.6,17.6,100,29.91,0.8,WNW,6.9,-,N/A,,Unknown,290,2013-02-17 13:15:00
8:35 AM,17.6,17.6,100,29.92,1.5,WNW,6.9,-,N/A,,Unknown,290,2013-02-17 13:35:00
8:55 AM,15.8,15.8,100,29.92,1.5,WNW,6.9,-,N/A,,Unknown,300,2013-02-17 13:55:00
9:15 AM,17.6,15.8,93,29.93,3.0,WNW,10.4,-,N/A,,Unknown,290,2013-02-17 14:15:00
9:35 AM,17.6,15.8,93,29.93,4.0,WNW,6.9,-,N/A,,Unknown,290,2013-02-17 14:35:00
9:55 AM,17.6,15.8,93,29.94,3.0,WNW,8.1,-,N/A,,Unknown,300,2013-02-17 14:55:00
10:15 AM,17.6,17.6,100,29.94,0.5,NW,4.6,-,N/A,,Unknown,310,2013-02-17 15:15:00
10:35 AM,19.4,17.6,93,29.94,2.5,NW,6.9,-,N/A,,Unknown,310,2013-02-17 15:35:00
10:55 AM,19.4,17.6,93,29.95,1.0,NNW,9.2,-,N/A,,Unknown,330,2013-02-17 15:55:00
11:15 AM,19.4,17.6,93,29.95,3.0,NW,11.5,-,N/A,,Unknown,310,2013-02-17 16:15:00
11:35 AM,19.4,14.0,80,29.96,10.0,NNW,12.7,-,N/A,,Unknown,330,2013-02-17 16:35:00
11:55 AM,19.4,14.0,80,29.96,7.0,WNW,8.1,17.3,N/A,,Unknown,300,2013-02-17 16:55:00
12:15 PM,19.4,17.6,93,29.96,0.5,NW,15.0,23.0,N/A,,Unknown,310,2013-02-17 17:15:00
12:35 PM,21.2,12.2,68,29.96,10.0,NW,13.8,19.6,N/A,,Unknown,310,2013-02-17 17:35:00
12:55 PM,21.2,14.0,74,29.95,2.0,NW,11.5,24.2,N/A,,Unknown,310,2013-02-17 17:55:00
1:15 PM,19.4,17.6,93,29.96,2.0,North,10.4,18.4,N/A,,Unknown,360,2013-02-17 18:15:00
1:35 PM,19.4,15.8,86,29.96,4.0,NW,9.2,19.6,N/A,,Unknown,320,2013-02-17 18:35:00
1:55 PM,21.2,10.4,63,29.97,10.0,NW,11.5,19.6,N/A,,Unknown,310,2013-02-17 18:55:00
2:15 PM,21.2,8.6,58,29.97,5.0,NW,12.7,27.6,N/A,,Unknown,310,2013-02-17 19:15:00
2:35 PM,21.2,12.2,68,29.98,10.0,NW,11.5,20.7,N/A,,Unknown,310,2013-02-17 19:35:00
2:55 PM,19.4,12.2,74,29.98,3.0,NNW,9.2,21.9,N/A,,Unknown,330,2013-02-17 19:55:00
3:15 PM,21.2,10.4,63,29.99,3.0,NW,17.3,25.3,N/A,,Unknown,320,2013-02-17 20:15:00
3:35 PM,21.2,10.4,63,29.99,10.0,NW,15.0,20.7,N/A,,Unknown,320,2013-02-17 20:35:00
3:55 PM,21.2,12.2,68,30.00,10.0,NW,15.0,23.0,N/A,,Unknown,320,2013-02-17 20:55:00
4:15 PM,19.4,10.4,68,30.01,7.0,NW,13.8,26.5,N/A,,Unknown,310,2013-02-17 21:15:00
4:35 PM,19.4,8.6,63,30.02,10.0,NW,13.8,20.7,N/A,,Unknown,310,2013-02-17 21:35:00
4:55 PM,19.4,8.6,63,30.02,10.0,NW,16.1,23.0,N/A,,Unknown,310,2013-02-17 21:55:00
5:15 PM,19.4,6.8,58,30.03,10.0,WNW,17.3,25.3,N/A,,Unknown,300,2013-02-17 22:15:00
5:35 PM,19.4,6.8,58,30.04,10.0,NW,12.7,18.4,N/A,,Unknown,320,2013-02-17 22:35:00
5:55 PM,17.6,5.0,58,30.05,10.0,NW,12.7,19.6,N/A,,Unknown,310,2013-02-17 22:55:00
6:15 PM,17.6,5.0,58,30.06,10.0,NW,12.7,18.4,N/A,,Unknown,310,2013-02-17 23:15:00
6:35 PM,17.6,5.0,58,30.07,10.0,WNW,15.0,20.7,N/A,,Unknown,300,2013-02-17 23:35:00
6:55 PM,17.6,5.0,58,30.08,10.0,NW,11.5,20.7,N/A,,Unknown,310,2013-02-17 23:55:00
7:15 PM,17.6,5.0,58,30.09,10.0,WNW,11.5,21.9,N/A,,Unknown,300,2013-02-18 00:15:00
7:35 PM,15.8,5.0,62,30.10,10.0,NW,11.5,18.4,N/A,,Unknown,320,2013-02-18 00:35:00
7:55 PM,15.8,6.8,68,30.10,10.0,NW,10.4,16.1,N/A,,Unknown,310,2013-02-18 00:55:00
8:15 PM,15.8,6.8,68,30.11,10.0,WNW,11.5,19.6,N/A,,Unknown,300,2013-02-18 01:15:00
8:35 PM,15.8,6.8,68,30.12,10.0,WNW,12.7,17.3,N/A,,Unknown,300,2013-02-18 01:35:00
8:55 PM,15.8,6.8,68,30.13,10.0,WNW,9.2,16.1,N/A,,Unknown,290,2013-02-18 01:55:00
9:15 PM,15.8,6.8,68,30.15,10.0,WNW,6.9,17.3,N/A,,Unknown,300,2013-02-18 02:15:00
9:35 PM,15.8,6.8,68,30.15,10.0,WNW,8.1,-,N/A,,Unknown,300,2013-02-18 02:35:00
9:55 PM,15.8,6.8,68,30.16,10.0,WNW,6.9,-,N/A,,Unknown,300,2013-02-18 02:55:00
10:15 PM,15.8,6.8,68,30.17,10.0,WNW,10.4,-,N/A,,Unknown,300,2013-02-18 03:15:00
10:35 PM,15.8,8.6,73,30.18,10.0,WNW,9.2,-,N/A,,Unknown,300,2013-02-18 03:35:00
10:55 PM,15.8,8.6,73,30.18,10.0,NW,6.9,-,N/A,,Unknown,310,2013-02-18 03:55:00
11:15 PM,15.8,8.6,73,30.18,10.0,WNW,8.1,-,N/A,,Unknown,300,2013-02-18 04:15:00
11:35 PM,15.8,8.6,73,30.19,10.0,WNW,6.9,-,N/A,,Unknown,300,2013-02-18 04:35:00
11:55 PM,15.8,8.6,73,30.19,10.0,NW,6.9,-,N/A,,Unknown,310,2013-02-18 04:55:00